Overview Statistics Trail Chart Weather Telemetry Raw packets
 

This is the latest recevied weather packets stored in our database for station/object EA8EE-7. If no packets are shown the sender has not sent any weather packets the latest 10 day(s).

<< 21 22 23 24 25 26 27 >>
Time Temp. Humidity Pressure Rain* Wind** Luminosity Snow
1788286694 33.89° C 36% 1022.7 hPa - - - -
1788286094 33.89° C 36% 1023.6 hPa - - - -
1788285494 33.89° C 36% 1024.5 hPa - - - -
1788284304 35° C 36% 1018.6 hPa - - - -
1788283704 35° C 36% 1020.8 hPa - - - -
1788283104 35.56° C 35% 965.3 hPa - - - -
1788282504 36.11° C 35% 1022.9 hPa - - - -
1788281904 36.11° C 35% 1019.5 hPa - - - -
1788281304 35.56° C 34% 1023.7 hPa - - - -
1788280704 35.56° C 34% 1022.6 hPa - - - -
1788279504 36.11° C 34% 1019.7 hPa - - - -
1788278904 35.56° C 34% 1019.9 hPa - - - -
1788278304 35.56° C 34% 1019.2 hPa - - - -
1788277704 35.56° C 34% 1019.5 hPa - - - -
1788277104 35.56° C 34% 1019 hPa - - - -
1788276504 35° C 34% 1023.9 hPa - - - -
1788275904 35° C 35% 1022.6 hPa - - - -
1788275304 35° C 35% 1021.1 hPa - - - -
1788274704 35° C 35% 1019.3 hPa - - - -
1788274104 35° C 35% 1021 hPa - - - -
1788273504 35° C 35% 1023.1 hPa - - - -
1788272904 35° C 35% 1024.7 hPa - - - -
1788272304 35° C 35% 1025.1 hPa - - - -
1788271704 35° C 35% 1024.6 hPa - - - -
1788271104 35° C 35% 1024.4 hPa - - - -

* Rain since midnight (hover to see other rain measurements)
** Current wind speed in m/s (hover to see current wind gust speed)